Location: 22
(39.7117°N, 89.5929°W)
Time: 04:52:29
(UTC-06:00)

Envisat - Pass Details

Date: 25 September 2023
Orbit: 762 x 764 km, 98.3° (Epoch: 07 December)

Event Time Altitude Azimuth Distance (km) Brightness Sun altitude
Rises 06:09:15 0° 353° (N) 3,239 6.2 -8.4°
Reaches altitude 10° 06:12:39 10° 329° (NNW) 2,308 5.2 -7.7°
Maximum altitude 06:15:10 14° 299° (WNW) 2,039 4.7 -7.3°
Drops below altitude 10° 06:17:42 10° 268° (W) 2,300 4.8 -6.8°
Enters shadow 06:18:32 - 261° (W) 2,484 5.0 -6.6°
